Weather History for Edinburgh Airport, United Kingdom

Change the Weather History Date:

Sunday, April 14, 2013

  Actual Average Record
Temperature  
Mean Temperature 54 °F -  
Max Temperature 57 °F 55 °F 64 °F (2007)
Min Temperature 51 °F 40 °F 24 °F (1998)
Degree Days  
Heating Degree Days 11    
Growing Degree Days 4 (Base 50)    
Moisture  
Dew Point 47 °F    
Average Humidity 77    
Maximum Humidity 88    
Minimum Humidity 63    
Precipitation  
Precipitation 0.00 in 0.06 in - ()
Sea Level Pressure  
Sea Level Pressure 29.43 in    
Wind  
Wind Speed 23 mph ()    
Max Wind Speed 37 mph    
Max Gust Speed 54 mph    
Visibility 6.1 miles    
Events Rain    
Averages and records for this station are not official NWS values.
T = Trace of Precipitation, MM = Missing Value Source: Averaged Metar Reports

Daily Weather History Graph

Daily Weather History Graph

Search for Another Location

Airport:

Trip Planner

Search our weather history database for the weather conditions in past years. The results will help you decide how hot, cold, wet, or windy it might be!

Date:

Astronomy

Apr. 14, 2013 Rise Set
Actual Time 6:10 AM BST 8:18 PM BST
Civil Twilight 5:30 AM BST 8:58 PM BST
Nautical Twilight 4:39 AM BST 9:49 PM BST
Astronomical Twilight 3:39 AM BST 10:51 PM BST
Moon 8:02 AM BST (4/14) 12:00 AM BST (4/14)
Length of Visible Light 15h 28m
Length of Day
14h 07m
Waxing Crescent, 15% of the Moon is Illuminated
Apr 14
Waxing Crescent
Apr 18
First Quarter
Apr 25
Full
May 2
Last Quarter
May 10
New

Hourly Weather History & Observations

Time (BST) Temp. Dew Point Humidity Pressure Visibility Wind Dir Wind Speed Gust Speed Precip Events Conditions
12:20 AM 53.6 °F 46.4 °F 77% 29.44 in 6.2 mi South 12.7 mph - N/A   Overcast
12:50 AM 53.6 °F 46.4 °F 77% 29.42 in 6.2 mi South 16.1 mph - N/A   Mostly Cloudy
1:20 AM 53.6 °F 48.2 °F 82% 29.42 in 6.2 mi South 16.1 mph - N/A   Scattered Clouds
1:50 AM 55.4 °F 48.2 °F 77% 29.39 in 6.2 mi South 21.9 mph - N/A   Mostly Cloudy
2:20 AM 55.4 °F 48.2 °F 77% 29.39 in 6.2 mi South 29.9 mph - N/A Rain Light Rain
2:50 AM 55.4 °F 48.2 °F 77% 29.39 in 6.2 mi SSW 25.3 mph - N/A   Scattered Clouds
3:20 AM 55.4 °F 48.2 °F 77% 29.42 in 6.2 mi SSW 31.1 mph 51.8 mph N/A   Mostly Cloudy
3:50 AM 55.4 °F 48.2 °F 77% 29.39 in 6.2 mi SSW 28.8 mph - N/A   Scattered Clouds
4:20 AM 53.6 °F 48.2 °F 82% 29.42 in 6.2 mi SSW 31.1 mph 43.7 mph N/A   Mostly Cloudy
4:50 AM 53.6 °F 48.2 °F 82% 29.42 in 6.2 mi SSW 27.6 mph 40.3 mph N/A   Scattered Clouds
5:20 AM 53.6 °F 48.2 °F 82% 29.42 in 6.2 mi SSW 28.8 mph 41.4 mph N/A Rain Light Rain
5:50 AM 53.6 °F 48.2 °F 82% 29.39 in 6.2 mi SSW 26.5 mph 43.7 mph N/A Rain Light Rain
6:20 AM 53.6 °F 48.2 °F 82% 29.42 in 6.2 mi SSW 27.6 mph - N/A Rain Light Rain
6:50 AM 53.6 °F 48.2 °F 82% 29.39 in 6.2 mi SSW 21.9 mph - N/A   Unknown
7:20 AM 53.6 °F 48.2 °F 82% 29.39 in 6.2 mi SSW 24.2 mph 35.7 mph N/A Rain Light Rain
7:50 AM 53.6 °F 48.2 °F 82% 29.42 in 4.3 mi SSW 26.5 mph 38.0 mph N/A Rain Light Rain
8:20 AM 53.6 °F 48.2 °F 82% 29.39 in 6.2 mi SSW 24.2 mph - N/A Rain Light Rain
8:50 AM 53.6 °F 48.2 °F 82% 29.39 in 6.2 mi SSW 26.5 mph - N/A Rain Light Rain
9:20 AM 53.6 °F 50.0 °F 88% 29.39 in 6.2 mi SSW 25.3 mph - N/A Rain Light Rain
9:50 AM 53.6 °F 50.0 °F 88% 29.42 in 5.0 mi SSW 26.5 mph 38.0 mph N/A Rain Light Rain
10:20 AM 53.6 °F 50.0 °F 88% 29.39 in 6.2 mi SSW 25.3 mph - N/A Rain Light Rain
10:50 AM 55.4 °F 50.0 °F 82% 29.39 in 6.2 mi SSW 27.6 mph 40.3 mph N/A Rain Light Rain
11:20 AM 53.6 °F 50.0 °F 88% 29.42 in 6.2 mi SSW 28.8 mph - N/A Rain Light Rain
11:50 AM 53.6 °F 48.2 °F 82% 29.44 in 6.2 mi SW 26.5 mph - N/A Rain Light Rain
12:20 PM 53.6 °F 48.2 °F 82% 29.44 in 6.2 mi SW 19.6 mph - N/A   Mostly Cloudy
12:50 PM 53.6 °F 46.4 °F 77% 29.47 in 6.2 mi SW 28.8 mph - N/A   Scattered Clouds
1:20 PM 55.4 °F 46.4 °F 72% 29.47 in 6.2 mi SW 24.2 mph - N/A   Partly Cloudy
1:50 PM 57.2 °F 44.6 °F 63% 29.47 in 6.2 mi SSW 31.1 mph 43.7 mph N/A   Partly Cloudy
2:20 PM 57.2 °F 44.6 °F 63% 29.47 in 6.2 mi SSW 28.8 mph 42.6 mph N/A   Partly Cloudy
2:50 PM 57.2 °F 46.4 °F 67% 29.47 in 6.2 mi SSW 24.2 mph 35.7 mph N/A   Partly Cloudy
3:20 PM 57.2 °F 44.6 °F 63% 29.50 in 6.2 mi SSW 28.8 mph 42.6 mph N/A   Partly Cloudy
3:50 PM 57.2 °F 46.4 °F 67% 29.47 in 6.2 mi SSW 24.2 mph 36.8 mph N/A   Partly Cloudy
4:20 PM 57.2 °F 44.6 °F 63% 29.47 in 6.2 mi SSW 27.6 mph 39.1 mph N/A   Partly Cloudy
4:50 PM 55.4 °F 46.4 °F 72% 29.47 in 6.2 mi SSW 25.3 mph 36.8 mph N/A   Partly Cloudy
5:20 PM 55.4 °F 44.6 °F 67% 29.47 in 6.2 mi SSW 23.0 mph 35.7 mph N/A   Scattered Clouds
5:50 PM 55.4 °F 44.6 °F 67% 29.47 in 6.2 mi SSW 24.2 mph 35.7 mph N/A   Scattered Clouds
6:20 PM 53.6 °F 44.6 °F 72% 29.47 in 6.2 mi SSW 26.5 mph 38.0 mph N/A   Partly Cloudy
6:50 PM 53.6 °F 44.6 °F 72% 29.47 in 6.2 mi SSW 25.3 mph 39.1 mph N/A   Scattered Clouds
7:20 PM 53.6 °F 44.6 °F 72% 29.47 in 6.2 mi SSW 24.2 mph 36.8 mph N/A   Partly Cloudy
7:50 PM 51.8 °F 44.6 °F 76% 29.47 in 6.2 mi SSW 27.6 mph 40.3 mph N/A   Partly Cloudy
8:20 PM 51.8 °F 44.6 °F 76% 29.47 in 6.2 mi SSW 26.5 mph 39.1 mph N/A   Partly Cloudy
8:50 PM 51.8 °F 44.6 °F 76% 29.47 in 6.2 mi SSW 31.1 mph - N/A   Partly Cloudy
9:20 PM 51.8 °F 44.6 °F 76% 29.44 in 6.2 mi SSW 28.8 mph 42.6 mph N/A   Scattered Clouds
9:50 PM 51.8 °F 44.6 °F 76% 29.44 in 6.2 mi SSW 26.5 mph 40.3 mph N/A   Scattered Clouds
10:20 PM 51.8 °F 44.6 °F 76% 29.44 in 6.2 mi SSW 33.4 mph 47.2 mph N/A   Mostly Cloudy
10:50 PM 51.8 °F 44.6 °F 76% 29.44 in 6.2 mi SSW 33.4 mph 46.0 mph N/A   Mostly Cloudy
11:20 PM 51.8 °F 44.6 °F 76% 29.44 in 5.6 mi SSW 36.8 mph 54.1 mph N/A   Overcast
11:50 PM 51.8 °F 44.6 °F 76% 29.44 in 6.2 mi SSW 35.7 mph 48.3 mph N/A   Mostly Cloudy